Daviess Cnty AP, Washington,, IN

6:15 PM EDT on August 18, 2019 (GMT -0400)
Daviess County

Weather History for KDCY - June, 2019

Change the Weather History Date:

Wednesday, June 12, 2019

  Actual Average (WUND) Record (WUND)
Temperature  
Mean Temperature 64 °F -  
Max Temperature 76 °F - - (-1)
Min Temperature 51 °F - - (-1)
Degree Days  
Heating Degree Days 2    
Growing Degree Days 14 (Base 50)    
Moisture  
Dew Point 51 °F    
Average Humidity 65    
Maximum Humidity 100    
Minimum Humidity 32    
Precipitation  
Precipitation 0.00 in - - ()
Sea Level Pressure  
Sea Level Pressure 29.94 in    
Wind  
Wind Speed 2 mph (West)    
Max Wind Speed 13 mph    
Max Gust Speed 20 mph    
Visibility 10 miles    
Events Rain    
Averages and records for this station are not official NWS values.
T = Trace of Precipitation, MM = Missing Value Source: NWS Daily Summary

Daily Weather History Graph

Daily Weather History Graph

Search for Another Location

Airport or City:

Astronomy

Jun. 12, 2019 Rise Set
Actual Time 6:23 AM EDT 9:13 PM EDT
Civil Twilight 5:51 AM EDT 9:45 PM EDT
Nautical Twilight 5:11 AM EDT 10:25 PM EDT
Astronomical Twilight 4:25 AM EDT 11:11 PM EDT
Moon 4:23 PM EDT (6/12) 3:33 AM EDT (6/12)
Length of Visible Light 15h 54m
Length of Day
14h 50m
Waxing Gibbous, 76% of the Moon is Illuminated
Jun 12
Waxing Gibbous
Jun 17
Full
Jun 25
Last Quarter
Jul 2
New
Jul 9
First Quarter

Hourly Weather History & Observations

Time (EDT) Temp. Dew Point Humidity Pressure Visibility Wind Dir Wind Speed Gust Speed Precip Events Conditions
12:15 AM 57.2 °F 54.5 °F 91% 30.10 in 10.0 mi Calm Calm - N/A   Clear
12:35 AM 57.6 °F 54.1 °F 88% 30.10 in 10.0 mi Calm Calm - N/A   Clear
12:55 AM 56.3 °F 55.2 °F 96% 30.09 in 10.0 mi Calm Calm - N/A   Clear
1:15 AM 56.7 °F 54.5 °F 92% 30.08 in 10.0 mi Calm Calm - N/A   Clear
1:35 AM 58.3 °F 50.9 °F 76% 30.08 in 10.0 mi Calm Calm - N/A   Clear
1:55 AM 57.2 °F 52.0 °F 83% 30.07 in 10.0 mi Calm Calm - N/A   Clear
2:15 AM 54.7 °F 54.0 °F 97% 30.07 in 10.0 mi Calm Calm - N/A   Clear
2:30 AM 54.7 °F 54.1 °F 98% 30.06 in 10.0 mi Calm Calm - N/A   Clear
2:55 AM 56.1 °F 54.1 °F 93% 30.05 in 10.0 mi Calm Calm - N/A   Clear
3:15 AM 53.6 °F 53.4 °F 99% 30.05 in 10.0 mi Calm Calm - N/A   Clear
3:35 AM 53.6 °F 53.4 °F 99% 30.05 in 10.0 mi Calm Calm - N/A   Clear
3:55 AM 54.0 °F 53.8 °F 99% 30.04 in 10.0 mi Calm Calm - N/A   Clear
4:15 AM 53.8 °F 53.4 °F 99% 30.04 in 10.0 mi Calm Calm - N/A   Clear
4:35 AM 52.7 °F 52.3 °F 99% 30.03 in 10.0 mi Calm Calm - N/A   Clear
4:55 AM 52.2 °F 52.0 °F 99% 30.03 in 10.0 mi Calm Calm - N/A   Clear
5:15 AM 52.2 °F 52.0 °F 99% 30.03 in 10.0 mi Calm Calm - N/A   Clear
5:35 AM 52.0 °F 51.8 °F 99% 30.03 in 10.0 mi Calm Calm - N/A   Clear
5:55 AM 51.3 °F 51.1 °F 99% 30.02 in 10.0 mi Calm Calm - N/A   Clear
6:15 AM 51.1 °F 50.9 °F 99% 30.02 in 10.0 mi Calm Calm - N/A   Clear
6:35 AM 51.8 °F 51.8 °F 100% 30.02 in 10.0 mi Calm Calm - N/A   Clear
6:55 AM 53.1 °F 52.9 °F 99% 30.02 in 10.0 mi Calm Calm - N/A   Clear
7:15 AM 54.1 °F 54.0 °F 99% 30.01 in 10.0 mi Calm Calm - N/A   Clear
7:35 AM 56.8 °F 55.4 °F 95% 30.01 in 10.0 mi Calm Calm - N/A   Clear
7:55 AM 58.3 °F 55.0 °F 89% 30.00 in 10.0 mi Calm Calm - N/A   Clear
8:15 AM 59.5 °F 55.4 °F 86% 30.00 in 10.0 mi Calm Calm - N/A   Clear
8:35 AM 60.6 °F 53.4 °F 77% 30.00 in 10.0 mi Calm Calm - N/A   Clear
8:55 AM 62.8 °F 53.6 °F 72% 29.99 in 10.0 mi Calm Calm - N/A   Clear
9:15 AM 64.4 °F 53.4 °F 67% 29.99 in 10.0 mi Calm Calm - N/A   Clear
9:35 AM 66.0 °F 53.4 °F 64% 29.98 in 10.0 mi Calm Calm - N/A   Clear
9:55 AM 66.4 °F 53.6 °F 63% 29.97 in 10.0 mi Calm Calm - N/A   Clear
10:15 AM 68.5 °F 53.2 °F 58% 29.97 in 10.0 mi Calm Calm - N/A   Clear
10:35 AM 69.3 °F 51.3 °F 53% 29.95 in 10.0 mi Calm Calm - N/A   Clear
10:55 AM 69.3 °F 50.5 °F 51% 29.95 in 10.0 mi Calm Calm - N/A   Clear
11:15 AM 70.5 °F 49.3 °F 47% 29.95 in 10.0 mi Calm Calm - N/A   Clear
11:35 AM 71.6 °F 49.3 °F 45% 29.94 in 10.0 mi Calm Calm - N/A   Clear
11:55 AM 71.2 °F 47.5 °F 43% 29.94 in 10.0 mi Calm Calm - N/A   Clear
12:15 PM 73.0 °F 47.5 °F 40% 29.94 in 10.0 mi Calm Calm - N/A   Clear
12:35 PM 73.2 °F 47.5 °F 40% 29.93 in 10.0 mi Calm Calm - N/A   Clear
12:55 PM 73.4 °F 46.2 °F 38% 29.92 in 10.0 mi WSW 4.6 mph - N/A   Clear
1:15 PM 74.5 °F 47.7 °F 39% 29.92 in 10.0 mi Calm Calm - N/A   Clear
1:35 PM 74.1 °F 46.4 °F 37% 29.91 in 10.0 mi Calm Calm - N/A   Clear
1:55 PM 75.2 °F 47.5 °F 37% 29.90 in 10.0 mi Calm Calm - N/A   Clear
2:15 PM 75.4 °F 47.7 °F 37% 29.89 in 10.0 mi North 4.6 mph - N/A   Clear
2:35 PM 75.9 °F 47.1 °F 36% 29.88 in 10.0 mi WNW 3.5 mph - N/A   Clear
2:55 PM 76.6 °F 49.3 °F 38% 29.87 in 10.0 mi Calm Calm - N/A   Clear
3:15 PM 76.1 °F 48.0 °F 37% 29.86 in 10.0 mi Calm Calm - N/A   Clear
3:35 PM 76.6 °F 47.8 °F 36% 29.85 in 10.0 mi NW 3.5 mph - N/A   Clear
3:55 PM 76.8 °F 46.2 °F 34% 29.85 in 10.0 mi West 3.5 mph - N/A   Clear
4:15 PM 76.3 °F 44.1 °F 32% 29.84 in 10.0 mi SW 5.8 mph - N/A   Clear
4:35 PM 76.1 °F 44.4 °F 32% 29.84 in 10.0 mi Calm Calm - N/A   Clear
4:55 PM 74.5 °F 47.1 °F 38% 29.83 in 10.0 mi WSW 6.9 mph - N/A   Clear
5:15 PM 73.6 °F 47.7 °F 40% 29.84 in 10.0 mi WSW 9.2 mph - N/A   Scattered Clouds
5:35 PM 73.2 °F 46.8 °F 39% 29.84 in 10.0 mi WSW 9.2 mph - N/A   Scattered Clouds
5:55 PM 72.7 °F 47.5 °F 41% 29.84 in 10.0 mi SW 9.2 mph - N/A   Scattered Clouds
6:15 PM 74.7 °F 48.0 °F 39% 29.83 in 10.0 mi SW 8.1 mph - N/A   Scattered Clouds
6:35 PM 73.6 °F 48.0 °F 40% 29.83 in 10.0 mi SW 9.2 mph - N/A   Mostly Cloudy
6:55 PM 72.5 °F 48.0 °F 42% 29.83 in 10.0 mi SW 8.1 mph - N/A   Overcast
7:15 PM 71.6 °F 49.6 °F 46% 29.82 in 10.0 mi West 9.2 mph - N/A Rain Light Rain
7:35 PM 71.1 °F 49.8 °F 47% 29.82 in 10.0 mi West 5.8 mph - N/A   Overcast
7:55 PM 70.3 °F 49.8 °F 48% 29.82 in 10.0 mi West 4.6 mph - N/A   Overcast
8:15 PM 70.2 °F 49.6 °F 48% 29.82 in 10.0 mi West 6.9 mph - N/A   Overcast
8:35 PM 66.0 °F 52.0 °F 60% 29.82 in 10.0 mi WNW 12.7 mph 19.6 mph N/A   Overcast
8:55 PM 64.9 °F 51.3 °F 61% 29.83 in 10.0 mi WNW 11.5 mph - N/A   Overcast
9:15 PM 63.9 °F 51.3 °F 64% 29.83 in 10.0 mi WNW 10.4 mph - N/A Rain Light Rain
9:35 PM 63.1 °F 51.8 °F 66% 29.83 in 10.0 mi WNW 6.9 mph - N/A   Overcast
9:55 PM 63.0 °F 51.1 °F 65% 29.84 in 10.0 mi West 6.9 mph - N/A   Overcast
10:15 PM 62.8 °F 51.3 °F 66% 29.84 in 10.0 mi West 4.6 mph - N/A   Overcast
10:35 PM 63.0 °F 50.5 °F 64% 29.85 in 10.0 mi West 5.8 mph - N/A   Overcast
10:55 PM 62.8 °F 50.0 °F 63% 29.85 in 10.0 mi West 8.1 mph - N/A   Overcast
11:15 PM 62.6 °F 50.2 °F 64% 29.85 in 10.0 mi WSW 8.1 mph - N/A   Overcast
11:35 PM 62.2 °F 50.9 °F 66% 29.85 in 10.0 mi WSW 6.9 mph - N/A   Overcast
11:55 PM 62.1 °F 51.8 °F 69% 29.84 in 10.0 mi WSW 9.2 mph - N/A   Overcast